Starlink 32125

operational
NORAD ID: 60260 Int'l Des: 2024-131 Owner: SPXS Country: US Constellation: starlink
LEOCIRCULAR

About Starlink 32125

Description loading...

Live Position

Loading 3D Globe...

Upcoming Passes

Altitude History

Altitude vs Time

uPlot chart will show altitude changes over time

Two-Line Element Set

1 60260U 24131F 25304.17302666 .00000771 00000-0 38184-4 0 9993
2 60260 53.1606 293.6957 0001509 86.2720 273.8453 15.30191107 71893
Epoch: Oct 31, 2025 • Age: 12 hours

Current Status

Altitude 479.7 km
Velocity 7.63 km/s
Sub-Earth Point -15.57°S, 10.05°W
Launch Date Jul 27, 2024
Age 1.2 years
Type internet

Technical Details

Classification Payload
Mass 730.00 kg
Dry Mass 700.00 kg
Total Mass 730.00 kg
Length 0.30 m
Diameter 4.10 m
Span 29.00 m
Shape Box + pan
Manufacturer SPXS
Bus Type Starlink V2M
Phase Status In Orbit
Owner/State SPXS/US

Large Constellations

Loading constellations...